Вернуться в каталог

STARLINK-4287

АктивенСвязьVLEO
NORAD 53020·PAYLOAD·🇺🇸 United States

Запущен Jul 7, 2022 с Cape Canaveral Space Force Station

Loading…

Ближайшие Пролёты (ближайшие 24 часа)

TLE

СвежийSource: CelesTrak SupGP

Эпоха: Sep 15, 2026, 02:13 UTC

1 53020C 22076AL  26258.09284722  .00033609  00000+0  96176-3 0  2584
2 53020  53.1591 307.4010 0001125  91.4382 143.2669 15.35375912    10

Отслеживайте STARLINK-4287 в реальном времени с AllMySat

Download on the App Store